Time,TemperatureF,DewpointF,PressureIn,WindDirection,WindDirectionDegrees,WindSpeedMPH,WindSpeedGustMPH,Humidity,HourlyPrecipIn,Conditions,Clouds,dailyrainin,SoftwareType,DateUTC
2013-04-20 21:57:00,47.6,28.9,30.34,WSW,248,0.0,0.0,48,0.00,,,0.05,VWS V14.01,2013-04-21 01:57:00,
2013-04-20 21:59:00,47.6,28.9,30.34,WSW,248,0.0,0.0,48,0.00,,,0.05,VWS V14.01,2013-04-21 01:59:00,
2013-04-20 22:04:00,47.7,29.5,30.35,WSW,251,0.0,0.0,49,0.00,,,0.05,VWS V14.01,2013-04-21 02:04:00,
2013-04-20 22:06:00,47.6,29.4,30.35,WSW,251,0.0,0.0,49,0.00,,,0.05,VWS V14.01,2013-04-21 02:06:00,
2013-04-20 22:10:00,47.5,29.8,30.35,WSW,250,0.0,0.0,50,0.00,,,0.05,VWS V14.01,2013-04-21 02:10:00,
2013-04-20 22:15:00,47.4,30.2,30.35,WSW,251,0.0,0.0,51,0.00,,,0.05,VWS V14.01,2013-04-21 02:15:00,
2013-04-20 22:20:00,47.2,30.0,30.35,WSW,251,0.0,0.0,51,0.00,,,0.05,VWS V14.01,2013-04-21 02:20:00,
2013-04-20 22:25:00,47.1,29.9,30.35,WSW,251,0.0,0.0,51,0.00,,,0.05,VWS V14.01,2013-04-21 02:25:00,
2013-04-20 22:30:00,46.9,29.7,30.36,WSW,252,0.0,0.0,51,0.00,,,0.05,VWS V14.01,2013-04-21 02:30:00,
2013-04-20 22:35:00,46.8,29.6,30.36,WSW,252,1.0,1.0,51,0.00,,,0.05,VWS V14.01,2013-04-21 02:35:00,
2013-04-20 22:40:00,46.6,29.5,30.36,WSW,252,0.0,2.0,51,0.00,,,0.05,VWS V14.01,2013-04-21 02:40:00,
2013-04-20 22:45:00,46.5,29.8,30.36,WSW,252,0.0,0.0,52,0.00,,,0.05,VWS V14.01,2013-04-21 02:45:00,
2013-04-20 22:50:00,46.3,29.6,30.36,WSW,252,0.0,0.0,52,0.00,,,0.05,VWS V14.01,2013-04-21 02:50:00,
2013-04-20 22:55:00,46.0,29.8,30.36,WSW,252,0.0,0.0,53,0.00,,,0.05,VWS V14.01,2013-04-21 02:55:00,
2013-04-20 23:00:00,45.8,29.7,30.37,WSW,252,0.0,0.0,53,0.00,,,0.05,VWS V14.01,2013-04-21 03:00:00,
2013-04-20 23:05:00,45.6,29.5,30.37,WSW,252,0.0,0.0,53,0.00,,,0.05,VWS V14.01,2013-04-21 03:05:00,
2013-04-20 23:10:00,45.5,29.4,30.37,WSW,252,0.0,0.0,53,0.00,,,0.05,VWS V14.01,2013-04-21 03:10:00,
2013-04-20 23:15:00,45.5,29.4,30.37,WSW,252,0.0,0.0,53,0.00,,,0.05,VWS V14.01,2013-04-21 03:15:00,
2013-04-20 23:20:00,45.4,28.8,30.37,WSW,252,0.0,0.0,52,0.00,,,0.05,VWS V14.01,2013-04-21 03:20:00,
2013-04-20 23:25:00,45.3,28.7,30.37,WSW,252,0.0,0.0,52,0.00,,,0.05,VWS V14.01,2013-04-21 03:25:00,
2013-04-20 23:30:00,45.2,29.6,30.38,WSW,252,0.0,0.0,54,0.00,,,0.05,VWS V14.01,2013-04-21 03:30:00,
2013-04-20 23:35:00,45.0,29.4,30.38,WSW,252,0.0,0.0,54,0.00,,,0.05,VWS V14.01,2013-04-21 03:35:00,
2013-04-20 23:40:00,45.0,29.4,30.37,WSW,252,0.0,1.0,54,0.00,,,0.05,VWS V14.01,2013-04-21 03:40:00,
2013-04-20 23:45:00,44.9,29.3,30.38,WSW,252,0.0,0.0,54,0.00,,,0.05,VWS V14.01,2013-04-21 03:45:00,
2013-04-20 23:50:00,44.7,29.1,30.38,WSW,252,0.0,0.0,54,0.00,,,0.05,VWS V14.01,2013-04-21 03:50:00,
2013-04-20 23:56:00,44.6,29.9,30.38,WSW,252,0.0,0.0,56,0.00,,,0.05,VWS V14.01,2013-04-21 03:56:00,